CAPE
2 1 6 8 4 3 5 1 1 2 0 0 0 0 12 4 47 16 7 47 44 103 152 177 120 61 53 0 1 0 17 0 0 2 0 3 0 0 0 0 0 0 0 0 0 0 0
1 1 2 3 6 2 4 4 3 2 0 0 0 0 0 3 4 3 4 1 0 1 4 17 5 30 4 0 0 0 0 0 0 0 0 0 0 0 0 0 0 0 0 0 0 0 0
0 4 1 2 4 3 1 3 3 4 0 0 0 0 0 0 0 0 0 0 0 0 0 0 0 0 0 0 0 4 0 0 0 0 0 23 3 0 0 0 0 0 0 0 0 0 0
1 7 3 0 3 4 2 3 3 4 1 0 0 0 0 0 0 0 0 1 1 4 1 0 0 0 0 0 0 1 0 0 0 0 0 0 0 0 0 0 0 0 0 0 0 0 0
4 0 5 4 6 3 1 2 4 2 1 0 0 0 0 0 0 0 0 0 0 2 0 0 0 0 0 0 0 0 0 0 0 0 0 0 0 0 0 0 0 0 0 0 0 0 0
4 6 5 5 3 3 2 0 1 2 0 0 0 0 0 0 0 0 0 0 0 0 0 0 0 0 0 0 0 0 0 0 0 0 0 0 0 0 0 0 0 0 0 0 0 0 0
1 2 5 4 4 2 1 1 0 0 0 0 0 0 0 0 0 0 0 0 0 0 0 0 0 0 0 0 0 0 0 0 0 0 0 0 0 0 0 0 0 0 0 0 0 0 0
5 1 2 5 3 2 1 1 1 0 0 0 0 0 0 0 0 0 0 0 0 0 0 0 0 0 0 0 0 0 0 0 0 0 0 0 0 0 0 0 0 0 0 0 0 0 0
6 4 1 2 5 1 0 0 1 1 0 0 0 0 0 0 0 0 0 0 0 0 0 0 0 0 0 0 0 0 0 0 0 0 0 0 0 0 0 0 0 0 0 0 0 0 0
3 1 3 1 2 1 0 0 0 0 0 0 0 0 0 0 0 0 0 0 0 0 0 0 0 0 0 0 0 0 0 0 0 0 0 0 0 0 0 0 0 0 0 0 0 0 0
4 6 5 2 1 0 0 0 0 0 0 0 0 0 0 0 0 0 0 0 0 0 0 0 0 0 0 0 0 0 0 0 0 0 0 0 0 0 0 0 0 0 0 0 0 0 0
2 2 1 0 0 0 0 0 0 0 0 0 0 0 0 0 0 0 0 0 0 0 0 0 0 0 0 0 0 0 0 0 0 0 0 0 0 0 0 0 0 0 0 0 0 0 0
0 2 1 0 0 0 0 0 0 0 0 0 0 0 0 0 0 0 0 0 0 0 0 0 0 0 0 0 0 0 0 0 0 0 0 0 0 0 0 0 0 0 0 0 0 0 0
0 0 0 0 0 0 0 0 0 0 0 0 0 0 0 0 0 0 0 0 0 0 0 0 0 0 0 0 0 0 0 0 0 0 0 0 0 0 0 0 0 0 0 0 0 0 0
0 0 0 0 0 0 0 0 0 0 0 0 0 0 0 0 0 0 0 0 0 0 0 0 0 0 0 0 0 0 0 0 0 0 0 0 0 0 0 0 0 0 0 0 0 0 0
0 0 0 0 0 0 0 0 0 0 0 0 0 0 0 0 0 0 0 0 0 0 0 0 0 0 0 0 0 0 0 0 0 0 0 0 0 0 0 0 0 0 0 0 0 0 0
0 0 0 0 0 0 0 0 0 0 0 0 0 0 0 0 0 0 0 0 0 0 0 0 0 0 0 0 0 0 0 0 0 0 0 0 0 0 0 0 0 0 0 0 0 0 0
0 0 0 0 0 0 0 0 0 0 0 0 0 0 0 0 0 0 0 0 0 0 0 0 0 0 0 0 0 0 0 0 0 0 0 0 0 0 0 0 0 0 0 0 0 0 0
0 0 0 0 0 0 0 0 0 0 0 0 0 0 0 0 0 0 0 0 0 0 0 0 0 0 0 0 0 0 0 0 0 0 0 0 0 0 0 0 0 0 0 0 0 0 0
0 0 0 0 0 0 0 0 0 0 0 0 0 0 0 0 0 0 0 0 0 0 0 0 0 0 0 0 0 0 0 0 0 0 0 0 0 0 0 0 0 0 0 0 0 0 0
0 0 0 0 0 0 0 0 0 0 0 0 0 0 0 0 0 0 0 0 0 0 0 0 0 0 0 0 0 0 0 0 0 0 0 0 0 0 0 0 0 0 0 0 0 0 0
0 0 0 0 0 0 0 0 0 0 0 0 0 0 0 0 0 0 0 0 0 0 0 0 0 0 0 0 0 0 0 0 0 0 0 0 0 0 0 0 0 0 0 0 0 0 0
0 0 0 0 0 0 0 0 0 0 0 0 0 0 0 0 0 0 0 0 0 0 0 0 0 0 0 0 0 0 0 0 0 0 0 0 0 0 0 0 0 0 0 0 0 0 0
3 1 0 0 0 0 0 0 0 0 0 0 0 0 0 0 0 0 0 0 0 0 0 0 0 0 0 0 0 0 0 0 0 0 0 0 0 0 0 0 0 0 0 0 0 0 0
1 3 8 6 1 3 1 0 0 0 0 0 0 0 0 0 0 0 0 0 0 0 0 0 0 0 0 0 0 0 0 0 0 0 0 0 0 0 0 0 0 0 0 0 0 0 0
7 1 3 6 12 10 8 6 1 0 0 0 0 0 0 0 0 0 0 0 0 0 0 0 0 0 0 0 0 0 0 0 0 0 0 0 0 0 0 0 0 0 0 0 0 0 0
6 8 10 5 6 8 9 7 13 4 0 0 0 0 0 0 0 0 0 0 0 0 0 0 0 0 0 0 0 0 0 0 0 0 0 0 0 0 0 0 0 0 0 0 0 0 0
3 2 9 14 10 3 0 12 14 12 1 0 0 0 0 0 0 0 0 0 0 0 0 0 0 0 0 0 0 0 0 0 0 0 0 0 0 0 0 0 0 0 0 0 0 0 0
1 3 6 13 13 3 0 0 1 4 7 0 1 0 0 0 0 0 0 0 0 0 0 0 0 0 0 0 0 0 0 0 0 0 0 0 0 0 0 0 0 0 0 0 0 0 0
CIN
-1 0 0 0 0 0 0 0 0 0 0 0 0 0 0 0 -1 -28 -31 -11 -9 -20 -10 -16 -22 -32 -26 0 0 0 -35 0 0 -50 0 -12 0 0 0 0 0 0 0 0 0 0 0
-3 0 0 0 0 0 0 0 0 0 0 0 0 0 0 0 -4 -16 -46 -18 0 -3 -19 -32 -16 -47 -43 0 0 0 0 0 0 0 0 0 0 0 0 0 0 0 0 0 0 0 0
0 0 0 0 0 0 0 0 0 0 0 0 0 0 0 0 0 0 0 0 0 0 0 -5 0 0 0 0 0 -52 -3 0 0 0 0 -25 -6 0 0 0 0 0 0 0 0 0 0
0 0 0 -1 0 0 0 0 0 0 0 0 0 0 0 0 0 0 0 -42 -40 -34 -15 0 0 0 0 0 0 -40 0 0 0 0 0 0 0 0 0 0 0 0 0 0 0 0 0
0 0 0 0 0 0 0 0 0 0 0 0 0 0 0 0 0 0 0 0 0 -64 -17 0 0 0 0 0 0 0 0 0 0 0 0 0 0 0 0 0 0 0 0 0 0 0 0
0 0 0 0 0 0 0 0 0 0 0 0 0 0 0 0 0 0 0 0 0 0 0 0 0 0 0 0 0 0 0 0 0 0 0 0 0 0 0 0 0 0 0 0 0 0 0
0 -1 0 0 0 0 0 0 0 0 0 0 0 0 0 0 0 0 0 0 0 0 0 0 0 0 0 0 0 0 0 0 0 0 0 0 0 0 0 0 0 0 0 0 0 0 0
-1 -2 0 0 0 0 0 0 0 0 0 0 0 0 0 0 0 0 0 0 0 0 0 0 0 0 0 0 0 0 0 0 0 0 0 0 0 0 0 0 0 0 0 0 0 0 0
-2 0 -1 0 0 0 0 0 0 0 0 0 0 0 0 0 0 0 0 0 0 0 0 0 0 0 0 0 0 0 0 0 0 0 0 0 0 0 0 0 0 0 0 0 0 0 0
0 0 -1 0 0 0 0 0 0 0 0 0 0 0 0 0 0 0 0 0 0 0 0 0 0 0 0 0 0 0 0 0 0 0 0 0 0 0 0 0 0 0 0 0 0 0 0
-1 -1 0 0 0 0 0 0 0 0 0 0 0 0 0 0 0 0 0 0 0 0 0 0 0 0 0 0 0 0 0 0 0 0 0 0 0 0 0 0 0 0 0 0 0 0 0
0 0 0 0 0 0 0 0 0 0 0 0 0 0 0 0 0 0 0 0 0 0 0 0 0 0 0 0 0 0 0 0 0 0 0 0 0 0 0 0 0 0 0 0 0 0 0
0 0 0 0 0 0 0 0 0 0 0 0 0 0 0 0 0 0 0 0 0 0 0 0 0 0 0 0 0 0 0 0 0 0 0 0 0 0 0 0 0 0 0 0 0 0 0
0 0 0 0 0 0 0 0 0 0 0 0 0 0 0 0 0 0 0 0 0 0 0 0 0 0 0 0 0 0 0 0 0 0 0 0 0 0 0 0 0 0 0 0 0 0 0
0 0 0 0 0 0 0 0 0 0 0 0 0 0 0 0 0 0 0 0 0 0 0 0 0 0 0 0 0 0 0 0 0 0 0 0 0 0 0 0 0 0 0 0 0 0 0
0 0 0 0 0 0 0 0 0 0 0 0 0 0 0 0 0 0 0 0 0 0 0 0 0 0 0 0 0 0 0 0 0 0 0 0 0 0 0 0 0 0 0 0 0 0 0
0 0 0 0 0 0 0 0 0 0 0 0 0 0 0 0 0 0 0 0 0 0 0 0 0 0 0 0 0 0 0 0 0 0 0 0 0 0 0 0 0 0 0 0 0 0 0
0 0 0 0 0 0 0 0 0 0 0 0 0 0 0 0 0 0 0 0 0 0 0 0 0 0 0 0 0 0 0 0 0 0 0 0 0 0 0 0 0 0 0 0 0 0 0
0 0 0 0 0 0 0 0 0 0 0 0 0 0 0 0 0 0 0 0 0 0 0 0 0 0 0 0 0 0 0 0 0 0 0 0 0 0 0 0 0 0 0 0 0 0 0
0 0 0 0 0 0 0 0 0 0 0 0 0 0 0 0 0 0 0 0 0 0 0 0 0 0 0 0 0 0 0 0 0 0 0 0 0 0 0 0 0 0 0 0 0 0 0
0 0 0 0 0 0 0 0 0 0 0 0 0 0 0 0 0 0 0 0 0 0 0 0 0 0 0 0 0 0 0 0 0 0 0 0 0 0 0 0 0 0 0 0 0 0 0
0 0 0 0 0 0 0 0 0 0 0 0 0 0 0 0 0 0 0 0 0 0 0 0 0 0 0 0 0 0 0 0 0 0 0 0 0 0 0 0 0 0 0 0 0 0 0
0 0 0 0 0 0 0 0 0 0 0 0 0 0 0 0 0 0 0 0 0 0 0 0 0 0 0 0 0 0 0 0 0 0 0 0 0 0 0 0 0 0 0 0 0 0 0
-4 -7 0 0 0 0 0 0 0 0 0 0 0 0 0 0 0 0 0 0 0 0 0 0 0 0 0 0 0 0 0 0 0 0 0 0 0 0 0 0 0 0 0 0 0 0 0
-8 -11 -12 -16 -12 -13 -13 0 0 0 0 0 0 0 0 0 0 0 0 0 0 0 0 0 0 0 0 0 0 0 0 0 0 0 0 0 0 0 0 0 0 0 0 0 0 0 0
-9 -13 -14 -17 -13 -10 -12 -17 -20 0 0 0 0 0 0 0 0 0 0 0 0 0 0 0 0 0 0 0 0 0 0 0 0 0 0 0 0 0 0 0 0 0 0 0 0 0 0
-10 -13 -15 -17 -17 -17 -17 -17 -16 -15 0 0 0 0 0 0 0 0 0 0 0 0 0 0 0 0 0 0 0 0 0 0 0 0 0 0 0 0 0 0 0 0 0 0 0 0 0
-16 -16 -18 -16 -23 -23 -7 -20 -15 -11 -7 0 0 0 0 0 0 0 0 0 0 0 0 0 0 0 0 0 0 0 0 0 0 0 0 0 0 0 0 0 0 0 0 0 0 0 0
-16 -20 -17 -15 -27 -36 0 0 -2 -13 -4 0 -3 0 0 0 0 0 0 0 0 0 0 0 0 0 0 0 0 0 0 0 0 0 0 0 0 0 0 0 0 0 0 0 0 0 0
Wind_Speed
27 26 27 26 26 25 24 24 26 27 27 26 31 30 32 34 35 35 39 36 36 35 34 35 10 13 12 12 17 23 16 20 23 26 29 35 34 31 30 29 27 23 21 16 16 15 14
28 27 27 27 25 26 24 24 25 27 28 27 28 32 32 30 30 29 36 37 31 25 20 21 19 16 14 14 17 17 19 21 22 19 28 31 31 27 25 24 28 22 17 14 15 17 16
30 28 26 27 26 25 25 25 25 26 27 26 26 29 30 33 31 28 35 33 28 24 25 18 20 23 11 11 19 18 22 22 18 21 23 27 20 22 22 21 20 18 17 15 16 18 18
33 31 28 26 25 25 25 25 25 26 26 26 26 27 28 29 28 25 23 30 30 25 22 17 14 15 20 19 18 13 20 17 13 13 15 16 15 20 21 19 21 23 20 24 20 20 20
34 33 31 28 25 24 25 25 24 24 25 24 24 23 24 22 25 24 21 22 21 17 20 17 17 9 25 22 21 13 14 19 13 15 12 14 18 20 20 24 23 26 27 23 22 19 20
34 35 33 31 28 24 24 24 23 22 22 23 22 22 22 19 20 23 22 23 21 18 20 18 3 3 9 22 25 22 13 17 16 16 16 19 19 22 24 26 29 29 26 22 23 22 21
34 35 35 32 29 27 23 23 22 21 19 19 20 20 19 17 14 16 19 18 23 30 15 12 8 10 14 9 18 12 13 17 16 17 19 20 21 23 21 23 25 20 21 20 18 20 22
35 35 36 35 31 29 26 22 20 20 19 16 15 15 17 18 19 18 22 28 27 23 31 9 6 5 1 6 0 2 7 14 14 13 16 15 18 17 18 19 15 20 19 21 19 19 22
35 35 36 36 35 29 28 25 20 17 17 17 15 14 11 12 16 21 27 26 21 18 27 13 6 4 5 2 1 6 6 9 8 7 8 14 16 16 16 13 14 14 18 19 19 19 21
34 36 36 36 35 32 26 25 22 17 15 15 16 16 14 12 16 16 16 15 15 17 26 16 8 6 6 13 8 6 9 14 10 10 7 10 14 13 12 14 15 18 15 14 17 19 24
32 33 35 36 35 30 25 21 21 18 15 14 15 17 15 18 17 17 17 15 15 16 24 14 15 12 10 14 17 6 8 1 8 16 15 15 11 11 12 15 15 16 15 14 17 18 22
31 33 34 35 34 29 24 19 19 18 14 13 15 17 16 18 20 18 15 16 17 22 26 17 16 17 14 7 14 15 11 8 11 1 3 13 13 12 13 12 10 10 14 15 17 19 25
30 32 33 35 35 34 25 18 17 18 14 15 17 20 21 17 20 17 17 19 25 28 19 20 21 22 22 12 12 13 13 13 18 20 19 17 15 15 16 13 13 14 15 19 21 23 24
30 32 32 35 36 35 27 12 14 16 16 19 19 20 22 22 18 18 19 22 33 25 25 21 21 24 22 17 12 13 13 16 13 16 22 21 17 17 17 15 13 13 14 17 21 21 22
29 31 32 34 35 33 29 25 18 13 19 21 19 20 23 19 18 17 21 29 27 24 24 23 20 20 20 19 16 14 12 15 15 15 19 14 14 18 16 16 15 15 16 15 19 19 23
27 30 32 33 34 33 30 30 31 24 25 21 23 23 26 17 18 20 27 27 24 23 21 19 21 19 22 18 18 17 17 13 14 14 16 17 15 18 17 18 17 16 12 16 17 21 23
25 28 31 32 33 34 33 33 35 36 27 20 22 25 25 19 19 25 28 25 24 21 20 19 21 21 21 20 17 17 17 16 15 15 16 17 20 19 18 19 18 16 18 19 20 20 19
26 27 29 31 32 33 34 34 35 37 37 23 22 27 24 20 29 26 25 21 19 20 19 19 17 17 19 18 19 19 19 15 14 16 17 17 19 21 23 20 21 22 24 18 25 25 24
27 28 29 30 32 33 34 34 36 36 35 24 24 23 22 23 27 27 22 21 20 18 17 16 16 16 15 16 16 18 18 17 17 15 16 15 19 20 20 20 21 24 26 27 27 25 25
26 27 28 30 31 33 34 35 35 36 33 24 23 25 25 27 25 24 22 22 20 18 16 15 15 14 13 14 14 14 16 15 16 15 16 16 17 19 20 19 20 22 24 26 27 25 25
26 27 27 28 31 32 33 35 36 36 32 23 25 23 23 26 27 25 23 22 21 19 17 16 14 13 12 12 12 12 13 13 13 15 16 17 18 19 21 24 25 25 25 20 17 19 13
25 26 27 28 28 30 32 33 35 36 31 23 23 23 22 22 22 22 23 24 23 22 19 18 16 18 12 12 14 11 18 9 13 12 15 16 24 25 27 26 21 25 25 19 19 15 19
25 26 27 28 29 29 30 31 33 34 29 22 21 20 21 21 22 22 22 22 23 22 20 19 20 20 15 16 17 16 14 15 15 14 11 15 21 25 29 26 32 36 24 16 12 14 10
25 26 27 28 29 29 28 29 30 31 29 23 22 20 21 21 21 22 21 21 21 21 22 20 20 21 18 19 19 17 17 14 17 12 14 17 18 21 30 32 30 25 21 22 15 12 10
26 26 27 28 29 28 28 27 27 28 29 23 21 20 21 22 20 18 19 19 20 20 21 20 21 21 21 22 24 25 23 23 21 19 21 17 21 27 29 29 36 30 23 23 21 22 14
25 25 27 27 29 29 28 27 26 26 27 24 22 20 19 22 20 18 20 19 22 20 20 19 21 20 21 22 23 26 26 23 22 22 21 19 22 26 25 29 31 25 20 18 19 28 19
31 29 27 28 28 29 30 29 25 24 24 24 23 22 21 21 19 18 19 20 19 20 22 21 21 20 19 23 25 26 26 22 26 24 22 21 23 21 25 29 34 25 20 19 29 28 20
29 29 30 29 28 28 28 27 25 23 21 22 23 21 22 24 23 20 20 20 18 18 24 20 25 21 22 23 25 25 26 25 27 23 24 23 23 25 24 30 33 21 22 26 23 22 26
29 28 29 30 29 28 28 26 25 23 21 18 23 21 20 23 24 23 23 21 21 20 22 20 22 22 20 22 24 25 28 27 27 31 20 27 22 25 21 24 23 23 26 27 29 32 31
Wind_Direction
58 58 55 54 54 53 52 51 47 46 44 47 47 49 50 52 55 55 54 59 64 70 70 100 82 173 210 212 215 214 230 224 226 217 213 210 202 209 211 215 221 219 228 232 232 238 239
57 57 55 54 55 53 53 52 50 48 52 52 53 51 51 56 61 70 65 62 73 98 116 140 163 183 192 183 213 228 219 211 217 215 209 209 205 212 214 214 223 221 219 222 233 238 246
55 55 56 54 54 54 53 53 53 53 54 54 57 57 57 57 63 76 68 70 82 107 114 123 157 147 92 165 164 189 195 200 210 213 209 205 218 211 209 211 213 205 213 226 239 244 247
51 52 53 54 54 54 53 54 54 55 55 58 59 62 63 64 66 75 82 82 87 98 117 119 141 152 138 141 155 205 194 210 224 217 207 217 211 203 217 206 212 223 225 229 244 247 253
49 49 51 52 53 54 53 54 56 57 57 59 61 63 64 68 69 77 92 94 94 102 112 122 132 128 133 131 136 169 192 191 204 205 207 207 218 213 209 209 215 225 225 232 239 254 256
46 46 48 50 51 53 54 54 56 58 59 58 61 63 66 75 81 81 93 94 96 99 120 128 140 93 165 126 122 143 186 191 195 196 200 210 215 209 211 214 219 224 226 236 242 252 259
42 42 44 48 50 50 53 53 54 57 60 61 61 63 67 75 88 92 90 97 95 90 69 93 45 46 25 177 92 164 184 182 192 201 199 209 204 202 215 228 235 227 230 237 250 261 262
36 37 39 42 48 49 49 51 53 54 58 61 62 63 69 78 88 99 96 94 97 107 94 52 73 25 130 193 307 225 213 200 199 191 206 201 201 218 227 233 223 232 230 242 259 266 270
30 32 34 36 41 47 48 48 51 53 56 60 62 65 76 90 99 96 94 96 101 105 97 109 131 155 206 263 317 197 213 196 185 177 193 203 213 223 225 231 230 240 242 249 260 271 279
25 24 27 31 36 42 46 46 47 52 57 61 64 67 74 95 96 107 105 110 117 107 94 94 138 179 200 175 197 230 227 207 210 201 206 206 221 221 224 230 248 239 261 267 270 270 269
18 19 22 25 32 40 43 42 42 48 58 65 68 67 77 86 93 100 104 117 121 117 92 103 115 165 168 174 178 238 237 310 199 203 212 213 223 231 234 245 260 252 267 275 277 280 282
11 13 15 22 28 37 41 36 36 42 55 72 74 69 78 88 89 101 118 119 113 96 93 113 116 132 158 186 175 186 203 218 211 254 209 212 226 245 244 264 281 277 277 284 287 288 280
7 7 9 11 18 27 38 35 29 38 53 75 78 73 72 87 88 103 114 106 85 83 116 109 107 114 124 174 191 188 191 199 196 196 201 208 223 230 236 262 273 276 278 271 276 280 284
355 355 4 0 354 341 336 0 16 31 54 70 78 76 74 77 95 105 103 92 75 91 97 116 112 109 118 146 195 216 213 200 210 205 191 203 225 228 236 248 280 291 291 282 280 286 294
354 350 355 354 346 335 329 329 335 16 52 63 74 76 70 77 90 101 89 77 83 92 102 108 113 116 119 129 157 194 225 218 225 232 219 245 255 234 250 259 281 289 286 305 296 304 299
350 346 346 346 345 334 327 330 334 331 44 60 58 61 55 81 89 85 76 81 89 95 104 108 103 114 115 130 139 152 174 238 239 246 243 244 264 256 270 267 281 294 309 300 304 296 295
348 346 338 341 340 337 331 331 336 340 35 53 50 39 47 73 80 67 67 79 88 94 97 103 102 108 113 119 133 145 154 181 214 239 253 249 235 254 264 270 280 288 285 286 288 292 306
337 339 337 332 334 334 334 333 336 341 357 43 41 22 44 62 39 52 63 77 90 90 93 97 108 113 111 121 123 128 139 166 215 201 195 218 217 206 224 255 260 259 255 283 260 239 226
327 327 331 335 332 331 332 332 335 338 358 27 24 27 43 42 20 29 51 58 69 84 92 98 104 109 121 121 126 129 136 148 157 182 200 221 197 192 200 214 233 220 225 227 234 258 212
322 325 326 327 331 333 333 333 331 334 350 20 17 10 18 25 25 19 25 30 43 58 74 88 98 107 124 126 128 141 137 151 163 175 188 204 206 202 199 215 230 218 219 210 212 212 215
318 318 321 326 324 327 332 333 331 331 341 13 7 7 12 2 3 7 6 6 13 23 41 56 79 88 104 124 128 142 142 133 154 177 200 223 209 221 222 229 231 222 220 205 198 205 208
312 315 318 323 328 328 328 330 332 329 333 6 1 3 6 7 9 8 359 347 347 355 3 10 20 13 51 54 29 63 346 114 192 20 344 341 262 278 257 242 222 231 226 219 220 225 226
305 310 314 317 322 327 331 332 333 336 343 356 3 10 4 2 1 0 360 353 340 342 352 355 350 346 3 357 352 352 352 346 341 346 359 338 319 307 280 300 288 268 253 221 286 292 269
301 304 308 311 314 320 326 329 333 338 345 350 354 358 352 356 357 353 357 356 349 343 335 349 349 341 351 352 345 345 338 341 330 331 328 326 324 319 298 295 296 308 321 319 312 312 294
295 299 304 305 308 314 320 326 329 333 336 346 352 351 345 339 347 352 354 356 351 348 340 342 340 343 346 338 326 321 323 324 323 324 314 317 312 302 301 300 289 302 316 313 312 313 308
292 295 297 301 302 306 312 317 321 326 329 332 339 347 349 335 334 345 338 344 340 344 345 347 345 348 338 331 328 317 315 323 321 322 326 313 302 299 303 302 300 312 324 330 324 303 324
285 289 294 297 300 302 303 308 313 317 322 323 324 332 331 329 333 336 331 331 338 333 329 338 344 343 341 327 322 320 318 323 314 314 317 314 308 295 297 301 298 313 318 322 303 306 324
283 285 287 294 298 301 303 304 307 310 313 317 316 324 321 317 319 325 324 324 328 328 321 334 332 334 328 322 321 320 318 319 316 317 315 310 308 305 300 298 301 316 313 303 313 319 319
279 282 285 289 292 297 301 301 300 303 305 310 307 315 319 309 312 318 316 317 317 316 316 321 322 328 333 326 324 323 319 318 316 311 317 308 308 307 301 307 314 318 310 313 312 310 313